TimeEST,TemperatureF,Dew PointF,Humidity,Sea Level PressureIn,VisibilityMPH,Wind Direction,Wind SpeedMPH,Gust SpeedMPH,PrecipitationIn,Events,Conditions,WindDirDegrees,DateUTC
12:15 AM,32.0,28.4,87,30.32,7.0,West,3.5,-,N/A,,Clear,280,2013-01-18 05:15:00
12:35 AM,32.0,28.4,87,30.33,10.0,West,4.6,-,N/A,,Clear,280,2013-01-18 05:35:00
12:55 AM,32.0,28.4,87,30.34,10.0,WNW,3.5,-,N/A,,Clear,290,2013-01-18 05:55:00
1:15 AM,30.2,26.6,86,30.35,10.0,West,3.5,-,N/A,,Clear,280,2013-01-18 06:15:00
1:35 AM,30.2,26.6,86,30.37,10.0,NW,4.6,-,N/A,,Clear,310,2013-01-18 06:35:00
1:55 AM,30.2,24.8,80,30.38,10.0,WNW,6.9,-,N/A,,Clear,300,2013-01-18 06:55:00
2:15 AM,30.2,23.0,75,30.40,10.0,WNW,5.8,-,N/A,,Clear,300,2013-01-18 07:15:00
2:35 AM,28.4,23.0,80,30.41,10.0,NW,6.9,-,N/A,,Clear,310,2013-01-18 07:35:00
2:55 AM,28.4,21.2,74,30.43,10.0,WNW,6.9,-,N/A,,Clear,300,2013-01-18 07:55:00
3:15 AM,28.4,21.2,74,30.43,10.0,WNW,6.9,-,N/A,,Scattered Clouds,300,2013-01-18 08:15:00
3:35 AM,26.6,19.4,74,30.45,10.0,Calm,Calm,-,N/A,,Scattered Clouds,0,2013-01-18 08:35:00
3:55 AM,26.6,19.4,74,30.45,10.0,NW,3.5,-,N/A,,Scattered Clouds,310,2013-01-18 08:55:00
4:15 AM,26.6,17.6,69,30.46,10.0,NNW,4.6,-,N/A,,Mostly Cloudy,330,2013-01-18 09:15:00
4:35 AM,26.6,17.6,69,30.47,10.0,North,4.6,-,N/A,,Mostly Cloudy,350,2013-01-18 09:35:00
4:55 AM,24.8,17.6,74,30.47,10.0,Calm,Calm,-,N/A,,Scattered Clouds,0,2013-01-18 09:55:00
5:15 AM,23.0,15.8,74,30.48,10.0,NNW,3.5,-,N/A,,Clear,340,2013-01-18 10:15:00
5:35 AM,23.0,14.0,68,30.49,10.0,North,3.5,-,N/A,,Clear,360,2013-01-18 10:35:00
5:55 AM,23.0,14.0,68,30.50,10.0,North,3.5,-,N/A,,Clear,10,2013-01-18 10:55:00
6:15 AM,23.0,14.0,68,30.51,10.0,Calm,Calm,-,N/A,,Clear,0,2013-01-18 11:15:00
6:35 AM,23.0,14.0,68,30.51,10.0,Calm,Calm,-,N/A,,Clear,0,2013-01-18 11:35:00
6:55 AM,21.2,14.0,74,30.52,10.0,Calm,Calm,-,N/A,,Clear,0,2013-01-18 11:55:00
7:15 AM,21.2,15.8,80,30.53,10.0,Calm,Calm,-,N/A,,Clear,0,2013-01-18 12:15:00
7:35 AM,19.4,15.8,86,30.53,10.0,Calm,Calm,-,N/A,,Clear,0,2013-01-18 12:35:00
7:55 AM,19.4,15.8,86,30.53,10.0,Calm,Calm,-,N/A,,Clear,0,2013-01-18 12:55:00
8:15 AM,19.4,15.8,86,30.54,10.0,Calm,Calm,-,N/A,,Clear,0,2013-01-18 13:15:00
8:35 AM,21.2,17.6,86,30.55,10.0,Calm,Calm,-,N/A,,Clear,0,2013-01-18 13:35:00
8:55 AM,23.0,17.6,80,30.54,10.0,Calm,Calm,-,N/A,,Clear,0,2013-01-18 13:55:00
9:15 AM,26.6,14.0,59,30.55,10.0,Calm,Calm,-,N/A,,Clear,0,2013-01-18 14:15:00
9:35 AM,28.4,14.0,55,30.56,10.0,Calm,Calm,-,N/A,,Clear,0,2013-01-18 14:35:00
9:55 AM,28.4,14.0,55,30.56,10.0,Calm,Calm,-,N/A,,Clear,0,2013-01-18 14:55:00
10:15 AM,28.4,14.0,55,30.57,10.0,Calm,Calm,-,N/A,,Clear,0,2013-01-18 15:15:00
10:35 AM,30.2,14.0,51,30.56,10.0,East,4.6,-,N/A,,Clear,90,2013-01-18 15:35:00
10:55 AM,30.2,14.0,51,30.57,10.0,Calm,Calm,-,N/A,,Clear,0,2013-01-18 15:55:00
11:15 AM,32.0,14.0,48,30.55,10.0,Calm,Calm,-,N/A,,Clear,0,2013-01-18 16:15:00
11:35 AM,32.0,12.2,44,30.55,10.0,Calm,Calm,-,N/A,,Clear,0,2013-01-18 16:35:00
11:55 AM,32.0,14.0,48,30.54,10.0,Calm,Calm,-,N/A,,Clear,0,2013-01-18 16:55:00
12:15 PM,32.0,14.0,48,30.53,10.0,Calm,Calm,-,N/A,,Clear,0,2013-01-18 17:15:00
12:35 PM,33.8,17.6,52,30.52,10.0,SSW,3.5,-,N/A,,Clear,200,2013-01-18 17:35:00
12:55 PM,33.8,17.6,52,30.52,10.0,SW,3.5,-,N/A,,Clear,220,2013-01-18 17:55:00
1:15 PM,33.8,15.8,48,30.51,10.0,SSW,4.6,-,N/A,,Clear,210,2013-01-18 18:15:00
1:35 PM,33.8,15.8,48,30.50,10.0,SSW,3.5,-,N/A,,Clear,200,2013-01-18 18:35:00
1:55 PM,35.6,17.6,48,30.50,10.0,Calm,Calm,-,N/A,,Clear,0,2013-01-18 18:55:00
2:15 PM,35.6,19.4,52,30.49,10.0,SW,3.5,-,N/A,,Clear,220,2013-01-18 19:15:00
2:35 PM,35.6,19.4,52,30.48,10.0,SSW,5.8,-,N/A,,Clear,200,2013-01-18 19:35:00
2:55 PM,35.6,17.6,48,30.48,10.0,SSW,6.9,-,N/A,,Clear,210,2013-01-18 19:55:00
3:15 PM,35.6,15.8,44,30.48,10.0,SSW,6.9,-,N/A,,Clear,210,2013-01-18 20:15:00
3:35 PM,35.6,15.8,44,30.47,10.0,SSW,6.9,-,N/A,,Clear,210,2013-01-18 20:35:00
3:55 PM,35.6,15.8,44,30.47,10.0,SSW,6.9,-,N/A,,Clear,210,2013-01-18 20:55:00
4:15 PM,35.6,14.0,41,30.46,10.0,South,6.9,-,N/A,,Clear,170,2013-01-18 21:15:00
4:35 PM,35.6,15.8,44,30.46,10.0,SW,8.1,-,N/A,,Clear,220,2013-01-18 21:35:00
4:55 PM,35.6,15.8,44,30.46,10.0,SSW,8.1,-,N/A,,Clear,200,2013-01-18 21:55:00
5:15 PM,33.8,17.6,52,30.45,10.0,South,5.8,-,N/A,,Clear,190,2013-01-18 22:15:00
5:35 PM,33.8,17.6,52,30.44,10.0,SSW,4.6,-,N/A,,Clear,210,2013-01-18 22:35:00
5:55 PM,33.8,17.6,52,30.44,10.0,Calm,Calm,-,N/A,,Clear,0,2013-01-18 22:55:00
6:15 PM,32.0,17.6,55,30.44,10.0,Calm,Calm,-,N/A,,Clear,0,2013-01-18 23:15:00
6:35 PM,32.0,19.4,60,30.43,10.0,Calm,Calm,-,N/A,,Clear,0,2013-01-18 23:35:00
6:55 PM,32.0,19.4,60,30.43,10.0,Calm,Calm,-,N/A,,Clear,0,2013-01-18 23:55:00
7:15 PM,30.2,21.2,69,30.42,10.0,Calm,Calm,-,N/A,,Clear,0,2013-01-19 00:15:00
7:35 PM,28.4,21.2,74,30.41,10.0,Calm,Calm,-,N/A,,Clear,0,2013-01-19 00:35:00
7:55 PM,28.4,21.2,74,30.41,10.0,Calm,Calm,-,N/A,,Clear,0,2013-01-19 00:55:00
8:15 PM,32.0,19.4,60,30.40,10.0,Calm,Calm,-,N/A,,Clear,0,2013-01-19 01:15:00
8:35 PM,30.2,19.4,64,30.40,10.0,Calm,Calm,-,N/A,,Clear,0,2013-01-19 01:35:00
8:55 PM,32.0,19.4,60,30.39,10.0,SW,3.5,-,N/A,,Clear,220,2013-01-19 01:55:00
9:15 PM,32.0,21.2,64,30.38,10.0,SW,4.6,-,N/A,,Clear,220,2013-01-19 02:15:00
9:35 PM,32.0,21.2,64,30.38,10.0,Calm,Calm,-,N/A,,Clear,0,2013-01-19 02:35:00
9:55 PM,32.0,21.2,64,30.37,10.0,SSW,4.6,-,N/A,,Clear,200,2013-01-19 02:55:00
10:15 PM,32.0,23.0,69,30.37,10.0,SSW,4.6,-,N/A,,Clear,210,2013-01-19 03:15:00
10:35 PM,32.0,23.0,69,30.36,10.0,SSW,4.6,-,N/A,,Clear,210,2013-01-19 03:35:00
10:55 PM,32.0,24.8,75,30.35,10.0,South,6.9,-,N/A,,Clear,190,2013-01-19 03:55:00
11:15 PM,32.0,24.8,75,30.34,10.0,SSW,6.9,-,N/A,,Clear,200,2013-01-19 04:15:00
11:35 PM,32.0,26.6,80,30.33,10.0,SSW,5.8,-,N/A,,Clear,210,2013-01-19 04:35:00
11:55 PM,32.0,26.6,80,30.33,10.0,SSW,4.6,-,N/A,,Clear,200,2013-01-19 04:55:00